C/2017 T1 ( Heinze )

Japanese version
Home page
Updated on January 8, 2018

---------------------------------------------------------------------

* Profile

Discovery Date October 2, 2017
Magnitude 18.2 mag
Discoverer Aren Heinze (Asteroid Terrestrial-impact Last Alert System (ATLAS) search program)

* Pictures

* Orbital Elements

Epoch 2018 Feb. 11.0 TT = JDT 2458160.5
T 2018 Feb. 21.71068 TT                                 MPCW
q   0.5806162            (2000.0)            P               Q
z  -0.0004457      Peri.   96.92236     +0.14108185     +0.19773698
 +/-0.0000119      Node   102.31577     -0.47699721     -0.84503825
e   1.0002588      Incl.   96.83202     +0.86750768     -0.49680020
From 609 observations 2017 Sept. 28-Dec. 31, mean residual 0".5.

* Finding Charts

* Magnitudes Graph

        m1 = 13.0 + 5 log d + 7.5 log r

---------------------------------------------------------------------

The orbital elements are published on M.P.E.C. 2017-Y165.
The charts are made with StellaNavigator Ver.10 (AstroArts).
The magnitudes graphs are made with Comet for Windows.

---------------------------------------------------------------------

Copyright(C) Seiichi Yoshida (comet@aerith.net). All rights reserved.